Zurück zum Katalog

THORAD AGENA D DEB

AktivSSO
NORAD 4683·DEBRIS·🇺🇸 United States

Gestartet Apr 8, 1970 von Vandenberg Space Force Base

Loading…

Nächste Überflüge (nächste 24 Stunden)

TLE

AktuellSource: Space-Track

Epoche: Sep 14, 2026, 21:23 UTC

1 04683U 70025BG  26257.89131970  .00000223  00000-0  51352-3 0  9991
2 04683 100.4084 301.0001 0121433 239.7325 294.5232 13.35052681739459

Verfolge THORAD AGENA D DEB in Echtzeit mit AllMySat

Download on the App Store